Location: Chenereilles
(45.4866°N, 4.0790°E)
Time: 06:18:43
(UTC+00:00)

Cosmos 1825 - Pass Details

Date: 12 November 2019
Orbit: 504 x 508 km, 82.5° (Epoch: 10 December)

Event Time Altitude Azimuth Distance (km) Brightness Sun altitude
Rises 17:11:54 0° 346° (NNW) 2,620 5.8 -9.8°
Reaches altitude 10° 17:14:03 10° 342° (NNW) 1,730 4.9 -10.2°
Maximum altitude 17:17:45 54° 265° (W) 622 3.0 -10.8°
Drops below altitude 10° 17:21:26 10° 188° (S) 1,717 5.1 -11.5°
Sets 17:23:34 0° 183° (S) 2,597 6.0 -11.8°
